Location: Newark
(45.8667°N, 9.7333°E)
Time: 00:02:51
(UTC+00:00)

A-11 Canister half - All Passes

Search period start: 20 January 2020 00:00
Search period end: 30 January 2020 00:00
Orbit: 1516 x 1683 km, 47.2° (Epoch: 19 January)

Date Brightness Start Highest point End Pass type
(mag) Time Alt. Az. Time Alt. Az. Time Alt. Az.
20 Jan - 00:38:50 10° SW 00:48:01 65° SSE 00:57:08 10° ENE visible
20 Jan - 02:43:31 10° W 02:52:50 84° N 03:02:11 10° E visible
20 Jan - 04:48:41 10° WNW 04:57:58 84° SSW 05:07:23 10° ESE visible
20 Jan - 06:53:43 10° WNW 07:02:12 42° SW 07:10:53 10° SSE daylight
20 Jan - 09:03:15 10° WSW 09:05:07 11° WSW 09:07:01 10° SW daylight
20 Jan - 22:14:49 10° S 22:21:37 23° SE 22:28:20 10° E night (unlit)
21 Jan - 00:16:00 10° SW 00:25:09 62° SSE 00:34:13 10° ENE visible
21 Jan - 02:20:35 10° W 02:29:55 84° N 02:39:15 10° E visible
21 Jan - 04:25:46 10° WNW 04:35:04 86° SSW 04:44:28 10° ESE visible
21 Jan - 06:30:48 10° WNW 06:39:22 44° SW 06:48:07 10° SSE daylight
21 Jan - 08:39:17 10° WSW 08:42:21 12° WSW 08:45:27 10° SW daylight
21 Jan - 21:52:18 10° S 21:58:50 21° SE 22:05:16 10° E night (unlit)
21 Jan - 23:53:09 10° SW 00:02:17 60° SSE 00:11:19 10° ENE visible
22 Jan - 01:57:39 10° W 02:07:00 85° N 02:16:19 10° E visible
22 Jan - 04:02:51 10° WNW 04:12:09 88° SSW 04:21:33 10° ESE visible
22 Jan - 06:07:52 10° WNW 06:16:31 46° SW 06:25:20 10° SSE visible
22 Jan - 08:15:42 10° W 08:19:34 13° SW 08:23:29 10° SSW daylight
22 Jan - 21:29:49 10° S 21:36:02 20° SE 21:42:09 10° E night (unlit)
22 Jan - 23:30:19 10° SW 23:39:25 57° SSE 23:48:24 10° ENE visible
23 Jan - 01:34:43 10° W 01:44:05 86° N 01:53:24 10° E visible
23 Jan - 03:39:56 10° WNW 03:49:14 89° SSW 03:58:37 10° ESE visible
23 Jan - 05:44:56 10° WNW 05:53:40 48° SW 06:02:33 10° SSE visible
23 Jan - 07:52:18 10° W 07:56:47 15° SW 08:01:20 10° SSW daylight
23 Jan - 21:07:22 10° SSE 21:13:14 18° SE 21:19:01 10° E night (unlit)
23 Jan - 23:07:29 10° SW 23:16:34 55° SE 23:25:29 10° ENE night (unlit)
24 Jan - 01:11:47 10° WSW 01:21:10 87° NNW 01:30:29 10° E visible
24 Jan - 03:17:01 10° WNW 03:26:20 89° N 03:35:42 10° ESE visible
24 Jan - 05:22:01 10° WNW 05:30:49 51° SW 05:39:46 10° SE visible
24 Jan - 07:29:00 10° W 07:34:00 16° SW 07:39:05 10° SSW daylight
24 Jan - 20:45:00 10° SSE 20:50:27 17° SE 20:55:50 10° E night (unlit)
24 Jan - 22:44:40 10° SW 22:53:42 53° SE 23:02:34 10° ENE night (unlit)
25 Jan - 00:48:51 10° WSW 00:58:15 88° NNW 01:07:33 10° ENE visible
25 Jan - 02:54:05 10° W 03:03:25 88° N 03:12:46 10° ESE visible
25 Jan - 04:59:06 10° WNW 05:07:58 53° SW 05:16:57 10° SE visible
25 Jan - 07:05:47 10° W 07:11:13 17° SW 07:16:45 10° SSW daylight
25 Jan - 20:22:40 10° SSE 20:27:40 16° SE 20:32:36 10° E night (unlit)
25 Jan - 22:21:51 10° SW 22:30:51 50° SE 22:39:39 10° ENE night (unlit)
26 Jan - 00:25:56 10° WSW 00:35:20 90° N 00:44:38 10° ENE visible
26 Jan - 02:31:09 10° W 02:40:30 87° N 02:49:50 10° E visible
26 Jan - 04:36:11 10° WNW 04:45:07 56° SSW 04:54:08 10° SE visible
26 Jan - 06:42:36 10° W 06:48:26 19° SW 06:54:20 10° SSW daylight
26 Jan - 20:00:25 10° SSE 20:04:53 14° SE 20:09:17 10° E night (unlit)
26 Jan - 21:59:04 10° SSW 22:08:00 48° SE 22:16:44 10° ENE night (unlit)
27 Jan - 00:02:59 10° WSW 00:12:26 89° SSE 00:21:44 10° ENE visible
27 Jan - 02:08:14 10° W 02:17:35 86° N 02:26:55 10° E visible
27 Jan - 04:13:16 10° WNW 04:22:15 58° SSW 04:31:19 10° SE visible
27 Jan - 06:19:29 10° W 06:25:39 20° SW 06:31:54 10° S visible
27 Jan - 19:38:18 10° SSE 19:42:06 13° ESE 19:45:51 10° E visible
27 Jan - 21:36:17 10° SSW 21:45:09 46° SE 21:53:48 10° ENE night (unlit)
27 Jan - 23:40:04 10° WSW 23:49:31 87° SSE 23:58:49 10° ENE visible
28 Jan - 01:45:18 10° W 01:54:40 85° N 02:03:59 10° E visible
28 Jan - 03:50:21 10° WNW 03:59:23 61° SSW 04:08:30 10° SE visible
28 Jan - 05:56:22 10° W 06:02:51 22° SW 06:09:24 10° S visible
28 Jan - 19:16:23 10° SE 19:19:19 12° ESE 19:22:14 10° ESE visible
28 Jan - 21:13:30 10° SSW 21:22:18 43° SE 21:30:53 10° ENE visible
28 Jan - 23:17:08 10° WSW 23:26:36 86° SSE 23:35:55 10° ENE night (unlit)
29 Jan - 01:22:22 10° W 01:31:45 84° N 01:41:04 10° E visible
29 Jan - 03:27:26 10° WNW 03:36:32 63° SSW 03:45:39 10° SE visible
29 Jan - 05:33:18 10° W 05:40:03 23° SW 05:46:53 10° S visible
29 Jan - 18:54:57 10° SE 18:56:33 10° ESE 18:58:07 10° ESE visible
29 Jan - 20:50:45 10° SSW 20:59:28 41° SE 21:07:57 10° ENE visible
29 Jan - 22:54:12 10° WSW 23:03:42 84° SSE 23:13:00 10° ENE night (unlit)
